{"data":{"norad_id":59839,"intl_designator":"2024-097E","name":"STARLINK-31887","alt_names":[],"object_type":"PAYLOAD","status":"ACTIVE","operator":null,"country":"US","launch_date":"2024-05-23","launch_site_code":"AFETR","launch_vehicle":null,"mission":null,"orbit_class":"UNKNOWN","rcs_meters":null,"size_class":null,"mass_kg":null,"dimensions":null,"purposes":["comms"],"wikipedia_slug":null,"has_3d_model":false,"image_url":null,"decayed_at":null,"tle_current":{"epoch":"2026-05-25T04:45:16.640064Z","epoch_age_seconds":55159,"freshness":"FRESH","line1":"1 59839U 24097E   26145.19810926 -.00000138  00000+0  45162-5 0  9995","line2":"2 59839  43.0002 202.6331 0001171 274.2674  85.8044 15.27579559113610","mean_motion":15.27579559,"eccentricity":0.0001171,"inclination_deg":43.0002,"raan_deg":202.6331,"arg_perigee_deg":274.2674,"mean_anomaly_deg":85.8044,"bstar":4.5162e-6,"rev_number":11361,"period_min":94.266775927708,"perigee_km":482.24697150614,"apogee_km":483.8538615991,"semimajor_km":6861.1874165526,"source":"CELESTRAK","updated_at":"2026-05-25T13:38:19.085838Z"}}}